Location: Unspecified
(40.7945°N, 0.0000°E)
Time: 03:36:55
(UTC+00:00)

Altair - Pass Details

Date: 29 January 2021
Orbit: 1501 x 1682 km, 47.2° (Epoch: 01 March)

Event Time Altitude Azimuth Distance (km) Brightness Sun altitude
Rises 00:51:01 0° 174° (S) 4,763 - -65.7°
Reaches altitude 10° 00:55:55 10° 153° (SSE) 3,821 - -65.3°
Maximum altitude 01:00:48 15° 122° (ESE) 3,467 - -64.9°
Drops below altitude 10° 01:05:46 10° 91° (E) 3,897 - -64.5°
Exits shadow 01:08:09 - 80° (E) 4,329 10.0 -64.2°
Sets 01:10:48 0° 71° (ENE) 4,915 10.4 -64.0°
